Regional Weather Roundup
Issued by NWS Memphis, TN

Home | Current Version | Previous Version | Text Only | Print | Product List | Glossary On
Versions: 1 2 3 4 5 6 7 8 9 10 11 12 13 14 15 16 17 18 19 20 21 22 23 24 25 26 27 28 29 30 31 32 33 34 35 36 37 38 39 40 41 42 43 44 45 46 47 48 49 50
000
ASUS44 KMEG 041210
RWRMEG
MEMPHIS CWA HOURLY WEATHER ROUNDUP
NATIONAL WEATHER SERVICE MEMPHIS TN
700 AM CDT WED MAY 04 2016

...WEST TENNESSEE...

CITY           SKY/WX    TMP DP  RH WIND       PRES   REMARKS
MEMPHIS INTL   PTCLDY    53  49  86 SW5       29.90S
6HR MIN TEMP:  50; 6HR MAX TEMP:  54;

NWS MEMPHIS      N/A     49 N/A N/A MISG        N/A
JACKSON        SUNNY     51  48  89 SW5       29.88S
6HR MIN TEMP:  47; 6HR MAX TEMP:  55;

LEXINGTON      SUNNY     45  45 100 CALM      29.86S
DYERSBURG      MOSUNNY   52  48  87 SW7       29.86S
6HR MIN TEMP:  48; 6HR MAX TEMP:  52;

UNION CITY     SUNNY     52  52 100 SW6       29.83F


...EASTERN ARKANSAS...

CITY           SKY/WX    TMP DP  RH WIND       PRES   REMARKS
JONESBORO      CLEAR     53  46  77 SW6       29.88S
6HR MIN TEMP:  50; 6HR MAX TEMP:  55;

WEST MEMPHIS   CLEAR     53  50  89 CALM      29.90S
6HR MIN TEMP:  52; 6HR MAX TEMP:  55;

BATESVILLE     PTCLDY    54  45  71 W6        29.90S
6HR MIN TEMP:  46; 6HR MAX TEMP:  54;

NEWPORT        PTCLDY    53  48  83 SW6       29.90F
6HR MIN TEMP:  51; 6HR MAX TEMP:  55;

WALNUT RIDGE   PTCLDY    50  43  76 SW8       29.87S
6HR MIN TEMP:  50; 6HR MAX TEMP:  54;

BLYTHEVILLE    SUNNY     53  48  83 SW7       29.87F
6HR MIN TEMP:  52; 6HR MAX TEMP:  55;

SEARCY         PTCLDY    46  46 100 CALM      29.94S
6HR MIN TEMP:  45; 6HR MAX TEMP:  50;

STUTTGART      PTCLDY    55  48  76 SW8       29.94F
6HR MIN TEMP:  54; 6HR MAX TEMP:  57;

PINE BLUFF     CLEAR     52  48  86 W5        29.96S
6HR MIN TEMP:  51; 6HR MAX TEMP:  55;

MONTICELLO     CLEAR     52  48  86 W5        29.97R
6HR MIN TEMP:  51; 6HR MAX TEMP:  54;



...NORTH MISSISSIPPI...

CITY           SKY/WX    TMP DP  RH WIND       PRES   REMARKS
TUPELO         SUNNY     53  48  83 SW3       29.91S
6HR MIN TEMP:  50; 6HR MAX TEMP:  54;

OXFORD         SUNNY     46  45  93 CALM      29.94S
BATESVILLE     FAIR      47  46  97 CALM      29.94S
6HR MIN TEMP:  46; 6HR MAX TEMP:  49;

OLIVE BRANCH   SUNNY     48  48 100 SW7       29.91S
TUNICA         CLEAR     52  48  87 SW5       29.93S
CORINTH        SUNNY     48  48 100 CALM      29.89S
GREENWOOD      PTCLDY    51  49  92 CALM      29.95S
6HR MIN TEMP:  48; 6HR MAX TEMP:  52;

COLUMBUS       SUNNY     50  49  97 CALM      29.92S
6HR MIN TEMP:  47; 6HR MAX TEMP:  54;

STARKVILLE     FAIR      46  46 100 CALM      29.93S
GOLDEN TRIANGL SUNNY     52  46  82 NW5       29.92S


...SOUTHEAST MISSOURI...

CITY           SKY/WX    TMP DP  RH WIND       PRES   REMARKS
KENNETT        FAIR      54  48  82 SW8       29.85S
WEST PLAINS    CLEAR     48  41  76 W6        29.86F
6HR MIN TEMP:  44; 6HR MAX TEMP:  48;

POPLAR BLUFF   CLEAR     49  44  83 SW6       29.83F
6HR MIN TEMP:  48; 6HR MAX TEMP:  52;

CAPE GIRARDEAU CLOUDY    53  46  77 SW12      29.79F
6HR MIN TEMP:  45; 6HR MAX TEMP:  53;



...NORTHWEST ALABAMA...

CITY           SKY/WX    TMP DP  RH WIND       PRES   REMARKS
MUSCLE SHOALS  SUNNY     51  48  89 CALM      29.90S
6HR MIN TEMP:  48; 6HR MAX TEMP:  54;



...MIDDLE TENNESSEE...

CITY           SKY/WX    TMP DP  RH WIND       PRES   REMARKS
NASHVILLE      SUNNY     49  46  90 CALM      29.85F
6HR MIN TEMP:  46; 6HR MAX TEMP:  54;

CLARKSVILLE    SUNNY     50  47  89 SW3       29.83F
6HR MIN TEMP:  45; 6HR MAX TEMP:  50; 6HR PCP: TRACE;

COLUMBIA       SUNNY    N/A N/A N/A CALM      29.85F


...WESTERN KENTUCKY...

CITY           SKY/WX    TMP DP  RH WIND       PRES   REMARKS
PADUCAH        MOSUNNY   52  47  83 SW8       29.79F
6HR MIN TEMP:  47; 6HR MAX TEMP:  52;

FORT CAMPBELL  SUNNY     50  47  90 SW7       29.82F
6HR MIN TEMP:  46; 6HR MAX TEMP:  50;



...CENTRAL ARKANSAS...

CITY           SKY/WX    TMP DP  RH WIND       PRES   REMARKS
LITTLE ROCK    PTCLDY    52  46  80 SW9       29.95S
6HR MIN TEMP:  50; 6HR MAX TEMP:  55;



SKY/WX REPORTED AS FAIR MEANS FEW OR NO CLOUDS BELOW
12 THOUSAND FEET.




USA.gov is the U.S. government's official web portal to all federal, state and local government web resources and services.